Albuquerque, NM

8:50 AM MDT on August 17, 2017 (GMT -0600)
Albuquerque International Sunport

Weather History for KABQ - May, 2013

Change the Weather History Date:

Wednesday, May 1, 2013

  Actual Average Record
Temperature  
Mean Temperature 65 °F 61 °F  
Max Temperature 83 °F 74 °F 88 °F (1992)
Min Temperature 47 °F 48 °F 28 °F (1967)
Degree Days  
Heating Degree Days 0 5  
Month to date heating degree days 0 5  
Since 1 July heating degree days 3831 4109  
Cooling Degree Days 0 1  
Month to date cooling degree days 0 1  
Year to date cooling degree days 8 8  
Growing Degree Days 16 (Base 50)    
Moisture  
Dew Point 15 °F    
Average Humidity 26    
Maximum Humidity 46    
Minimum Humidity 6    
Precipitation  
Precipitation 0.00 in 0.01 in 0.68 in (2007)
Month to date precipitation 0.00 0.01  
Year to date precipitation 0.60 2.05  
Snow  
Snow 0.00 in - - ()
Month to date snowfall 0.0  
Since 1 July snowfall 3.5  
Snow Depth 0.00 in    
Sea Level Pressure  
Sea Level Pressure 29.80 in    
Wind  
Wind Speed 13 mph (SSW)    
Max Wind Speed 32 mph    
Max Gust Speed 40 mph    
Visibility 10 miles    
Events      
T = Trace of Precipitation, MM = Missing Value Source: NWS Daily Summary

Daily Weather History Graph

Daily Weather History Graph

Search for Another Location

Airport or City:

Trip Planner

Search our weather history database for the weather conditions in past years. The results will help you decide how hot, cold, wet, or windy it might be!

Date:

Astronomy

May. 01, 2013 Rise Set
Actual Time 6:15 AM MDT 7:52 PM MDT
Civil Twilight 5:48 AM MDT 8:19 PM MDT
Nautical Twilight 5:15 AM MDT 8:52 PM MDT
Astronomical Twilight 4:41 AM MDT 9:26 PM MDT
Moon 1:03 AM MDT (5/1) 11:56 AM MDT (5/1)
Length of Visible Light 14h 31m
Length of Day
13h 37m
Waning Gibbous, 58% of the Moon is Illuminated
May 1
Waning Gibbous
May 2
Last Quarter
May 9
New
May 17
First Quarter
May 24
Full

Hourly Weather History & Observations

Time (MDT) Temp. Dew Point Humidity Pressure Visibility Wind Dir Wind Speed Gust Speed Precip Events Conditions
12:52 AM 69.1 °F 12.0 °F 11% 29.65 in 10.0 mi WSW 9.2 mph - N/A   Clear
1:52 AM 68.0 °F 12.9 °F 12% 29.65 in 10.0 mi South 6.9 mph - N/A   Scattered Clouds
2:52 AM 66.9 °F 14.0 °F 13% 29.67 in 10.0 mi SSW 5.8 mph - N/A   Scattered Clouds
3:52 AM 55.9 °F 12.0 °F 18% 29.71 in 10.0 mi SE 8.1 mph - N/A   Scattered Clouds
4:52 AM 63.0 °F 14.0 °F 15% 29.72 in 10.0 mi SSW 6.9 mph - N/A   Scattered Clouds
5:52 AM 61.0 °F 14.0 °F 16% 29.74 in 10.0 mi SSW 8.1 mph - N/A   Scattered Clouds
6:52 AM 59.0 °F 14.0 °F 17% 29.77 in 10.0 mi South 9.2 mph - N/A   Scattered Clouds
7:52 AM 61.0 °F 14.0 °F 16% 29.80 in 10.0 mi South 6.9 mph - N/A   Scattered Clouds
8:52 AM 66.0 °F 12.9 °F 13% 29.81 in 10.0 mi SW 9.2 mph - N/A   Scattered Clouds
9:52 AM 70.0 °F 12.9 °F 11% 29.81 in 10.0 mi Calm Calm - N/A   Scattered Clouds
10:52 AM 72.0 °F 12.0 °F 10% 29.80 in 10.0 mi Variable 4.6 mph - N/A   Scattered Clouds
11:52 AM 75.9 °F 12.9 °F 9% 29.78 in 10.0 mi WSW 12.7 mph 20.7 mph N/A   Partly Cloudy
12:52 PM 78.1 °F 12.9 °F 8% 29.76 in 10.0 mi West 16.1 mph 24.2 mph N/A   Scattered Clouds
1:52 PM 80.1 °F 14.0 °F 8% 29.75 in 10.0 mi SSW 12.7 mph 24.2 mph N/A   Partly Cloudy
2:52 PM 81.0 °F 12.0 °F 7% 29.74 in 10.0 mi WSW 15.0 mph 23.0 mph N/A   Partly Cloudy
3:52 PM 82.0 °F 10.9 °F 7% 29.75 in 10.0 mi SW 19.6 mph 25.3 mph N/A   Partly Cloudy
4:52 PM 82.0 °F 9.0 °F 6% 29.72 in 10.0 mi WSW 15.0 mph 26.5 mph N/A   Scattered Clouds
5:52 PM 82.0 °F 10.0 °F 7% 29.73 in 10.0 mi WSW 17.3 mph 27.6 mph N/A   Partly Cloudy
6:52 PM 80.1 °F 12.0 °F 8% 29.75 in 10.0 mi West 25.3 mph 31.1 mph N/A   Partly Cloudy
7:52 PM 75.0 °F 21.9 °F 14% 29.79 in 10.0 mi WNW 12.7 mph - N/A   Partly Cloudy
8:52 PM 69.1 °F 6.1 °F 9% 29.90 in 10.0 mi NE 18.4 mph 24.2 mph N/A   Scattered Clouds
9:10 PM 64.4 °F 28.4 °F 26% 30.14 in 10.0 mi ENE 19.6 mph 29.9 mph N/A   Scattered Clouds
9:52 PM 60.1 °F 30.0 °F 32% 29.99 in 10.0 mi East 19.6 mph 25.3 mph N/A   Scattered Clouds
10:52 PM 54.0 °F 27.0 °F 35% 30.04 in 10.0 mi East 23.0 mph 29.9 mph N/A   Clear
11:52 PM 48.9 °F 28.9 °F 46% 30.07 in 10.0 mi East 24.2 mph 40.3 mph N/A   Clear